TimeMST,TemperatureF,Dew PointF,Humidity,Sea Level PressureIn,VisibilityMPH,Wind Direction,Wind SpeedMPH,Gust SpeedMPH,PrecipitationIn,Events,Conditions,WindDirDegrees,DateUTC
12:53 AM,30.0,15.1,54,29.64,10.0,NW,3.5,-,N/A,,Clear,310,2012-12-12 07:53:00
1:53 AM,26.1,12.9,58,29.67,10.0,NW,4.6,-,N/A,,Clear,320,2012-12-12 08:53:00
2:53 AM,24.1,12.9,62,29.65,10.0,Calm,Calm,-,N/A,,Clear,0,2012-12-12 09:53:00
3:53 AM,27.0,14.0,58,29.62,10.0,Variable,5.8,-,N/A,,Clear,0,2012-12-12 10:53:00
4:53 AM,26.1,12.9,58,29.63,10.0,Variable,3.5,-,N/A,,Clear,0,2012-12-12 11:53:00
5:53 AM,24.1,12.9,62,29.62,10.0,WNW,5.8,-,N/A,,Clear,300,2012-12-12 12:53:00
6:53 AM,23.0,12.9,65,29.65,10.0,Variable,3.5,-,N/A,,Clear,0,2012-12-12 13:53:00
7:53 AM,21.0,12.9,71,29.68,10.0,NNW,4.6,-,N/A,,Clear,340,2012-12-12 14:53:00
8:53 AM,28.0,15.1,58,29.68,10.0,SE,4.6,-,N/A,,Clear,140,2012-12-12 15:53:00
9:53 AM,45.0,16.0,31,29.60,10.0,SW,18.4,26.5,N/A,,Clear,230,2012-12-12 16:53:00
10:53 AM,44.1,16.0,32,29.62,10.0,WSW,25.3,32.2,N/A,,Clear,240,2012-12-12 17:53:00
11:53 AM,46.0,18.0,33,29.62,10.0,SW,20.7,32.2,N/A,,Clear,230,2012-12-12 18:53:00
12:53 PM,41.0,19.9,43,29.67,10.0,WSW,15.0,25.3,N/A,,Mostly Cloudy,240,2012-12-12 19:53:00
1:53 PM,42.1,18.0,38,29.69,10.0,SW,11.5,-,N/A,,Mostly Cloudy,220,2012-12-12 20:53:00
2:53 PM,41.0,15.1,35,29.72,10.0,West,18.4,25.3,N/A,,Scattered Clouds,260,2012-12-12 21:53:00
3:53 PM,39.0,14.0,36,29.75,10.0,WSW,11.5,-,N/A,,Clear,250,2012-12-12 22:53:00
4:53 PM,37.0,12.9,37,29.77,10.0,WSW,11.5,-,N/A,,Clear,240,2012-12-12 23:53:00
5:53 PM,37.9,12.0,35,29.80,10.0,WSW,13.8,-,N/A,,Clear,250,2012-12-13 00:53:00
6:53 PM,37.0,10.9,34,29.83,10.0,North,4.6,-,N/A,,Clear,350,2012-12-13 01:53:00
7:53 PM,35.1,10.9,37,29.86,10.0,Calm,Calm,-,N/A,,Clear,0,2012-12-13 02:53:00
8:53 PM,33.1,12.0,42,29.84,10.0,Calm,Calm,-,N/A,,Clear,0,2012-12-13 03:53:00
9:53 PM,32.0,12.0,44,29.79,10.0,Variable,5.8,-,N/A,,Clear,0,2012-12-13 04:53:00
10:53 PM,28.9,12.0,49,29.83,10.0,SE,5.8,-,N/A,,Clear,140,2012-12-13 05:53:00
11:53 PM,30.0,12.0,47,29.85,10.0,ESE,3.5,-,N/A,,Clear,120,2012-12-13 06:53:00